YV3077 SVRS-SVHG

Flight info

Callsign YV3077
Flight time 0h 41m
Altitude 7500
Route CBC
Aircraft PA31/L-SDFGRY/S

Departure

Time 2026-04-12 15:44
Airport Los Roques Airport (SVRS)

Arrival

Time 2026-04-12 16:26
Airport Higuerote Airport (SVHG)
Time Latitude Longitude Altitude Speed Heading
2026-04-12 15:22 11.94434 -66.67265 9 ft 0 kts 334°
2026-04-12 15:41 11.94438 -66.67267 9 ft 3 kts 335°
2026-04-12 15:41 11.94427 -66.67303 9 ft 7 kts 233°
2026-04-12 15:41 11.94421 -66.67348 9 ft 0 kts 306°
2026-04-12 15:42 11.94422 -66.67348 9 ft 0 kts 306°
2026-04-12 15:43 11.94427 -66.67355 9 ft 4 kts 307°
2026-04-12 15:43 11.94441 -66.67358 9 ft 0 kts 65°
2026-04-12 15:43 11.94524 -66.67178 9 ft 61 kts 62°
2026-04-12 15:43 11.94767 -66.66667 69 ft 88 kts 68°
2026-04-12 15:44 11.94958 -66.66065 254 ft 94 kts 80°
2026-04-12 15:44 11.95023 -66.65409 583 ft 94 kts 85°
2026-04-12 15:44 11.94979 -66.64735 804 ft 94 kts 105°
2026-04-12 15:44 11.94546 -66.64221 1007 ft 107 kts 145°
2026-04-12 15:45 11.93747 -66.64221 1188 ft 125 kts 186°
2026-04-12 15:45 11.92912 -66.64530 1398 ft 127 kts 189°
2026-04-12 15:45 11.92086 -66.64868 1607 ft 128 kts 190°
2026-04-12 15:45 11.91264 -66.65226 1821 ft 128 kts 191°
2026-04-12 15:46 11.90435 -66.65458 2029 ft 117 kts 164°
2026-04-12 15:46 11.88913 -66.65059 2457 ft 112 kts 151°
2026-04-12 15:46 11.88175 -66.64813 2664 ft 112 kts 150°
2026-04-12 15:47 11.87454 -66.64509 2874 ft 111 kts 145°
2026-04-12 15:47 11.86754 -66.64169 3078 ft 112 kts 145°
2026-04-12 15:47 11.86046 -66.63818 3286 ft 113 kts 145°
2026-04-12 15:47 11.85335 -66.63459 3495 ft 114 kts 146°
2026-04-12 15:48 11.84602 -66.63129 3707 ft 115 kts 148°
2026-04-12 15:48 11.83865 -66.62802 3919 ft 116 kts 148°
2026-04-12 15:48 11.83127 -66.62465 4129 ft 117 kts 148°
2026-04-12 15:48 11.82380 -66.62114 4341 ft 118 kts 148°
2026-04-12 15:49 11.81628 -66.61761 4554 ft 120 kts 148°
2026-04-12 15:49 11.80857 -66.61405 4770 ft 121 kts 148°
2026-04-12 15:49 11.80098 -66.61038 4985 ft 122 kts 149°
2026-04-12 15:49 11.79316 -66.60677 5200 ft 123 kts 150°
2026-04-12 15:50 11.78519 -66.60327 5415 ft 125 kts 153°
2026-04-12 15:50 11.77710 -66.59984 5631 ft 125 kts 153°
2026-04-12 15:50 11.76900 -66.59641 5847 ft 126 kts 153°
2026-04-12 15:50 11.76085 -66.59291 6063 ft 127 kts 152°
2026-04-12 15:51 11.75268 -66.58937 6281 ft 128 kts 152°
2026-04-12 15:51 11.74448 -66.58575 6502 ft 129 kts 151°
2026-04-12 15:51 11.73615 -66.58195 6726 ft 130 kts 152°
2026-04-12 15:51 11.72794 -66.57823 6946 ft 130 kts 152°
2026-04-12 15:52 11.71954 -66.57439 7169 ft 131 kts 152°
2026-04-12 15:52 11.71124 -66.57056 7389 ft 131 kts 152°
2026-04-12 15:52 11.70257 -66.56655 7461 ft 145 kts 152°
2026-04-12 15:52 11.69312 -66.56202 7445 ft 155 kts 151°
2026-04-12 15:53 11.68311 -66.55720 7439 ft 160 kts 151°
2026-04-12 15:53 11.67294 -66.55230 7435 ft 164 kts 152°
2026-04-12 15:53 11.66241 -66.54723 7436 ft 167 kts 151°
2026-04-12 15:53 11.65198 -66.54227 7437 ft 167 kts 152°
2026-04-12 15:54 11.64138 -66.53715 7437 ft 167 kts 152°
2026-04-12 15:54 11.63067 -66.53230 7437 ft 167 kts 154°
2026-04-12 15:54 11.61997 -66.52756 7437 ft 167 kts 153°
2026-04-12 15:54 11.60919 -66.52285 7436 ft 167 kts 153°
2026-04-12 15:55 11.59849 -66.51820 7438 ft 167 kts 153°
2026-04-12 15:55 11.58767 -66.51349 7436 ft 167 kts 154°
2026-04-12 15:55 11.57693 -66.50878 7435 ft 167 kts 154°
2026-04-12 15:55 11.56616 -66.50404 7434 ft 168 kts 153°
2026-04-12 15:56 11.55551 -66.49937 7433 ft 168 kts 153°
2026-04-12 15:56 11.54462 -66.49458 7433 ft 167 kts 154°
2026-04-12 15:56 11.53395 -66.48990 7431 ft 168 kts 153°
2026-04-12 15:56 11.52323 -66.48522 7431 ft 167 kts 153°
2026-04-12 15:57 11.51235 -66.48047 7431 ft 167 kts 153°
2026-04-12 15:57 11.50164 -66.47581 7430 ft 168 kts 153°
2026-04-12 15:57 11.49090 -66.47109 7430 ft 167 kts 154°
2026-04-12 15:57 11.48014 -66.46635 7430 ft 167 kts 153°
2026-04-12 15:58 11.46941 -66.46159 7430 ft 167 kts 154°
2026-04-12 15:58 11.45870 -66.45679 7428 ft 168 kts 153°
2026-04-12 15:58 11.44795 -66.45200 7427 ft 168 kts 154°
2026-04-12 15:58 11.43725 -66.44724 7426 ft 168 kts 153°
2026-04-12 15:59 11.42652 -66.44250 7423 ft 168 kts 154°
2026-04-12 15:59 11.41562 -66.43772 7422 ft 168 kts 153°
2026-04-12 15:59 11.40501 -66.43282 7421 ft 168 kts 153°
2026-04-12 15:59 11.39432 -66.42782 7420 ft 168 kts 152°
2026-04-12 16:00 11.38358 -66.42283 7420 ft 168 kts 152°
2026-04-12 16:00 11.37294 -66.41793 7420 ft 168 kts 153°
2026-04-12 16:00 11.36229 -66.41299 7421 ft 168 kts 153°
2026-04-12 16:00 11.35154 -66.40791 7421 ft 168 kts 152°
2026-04-12 16:01 11.34093 -66.40297 7421 ft 168 kts 152°
2026-04-12 16:01 11.33025 -66.39803 7421 ft 167 kts 152°
2026-04-12 16:01 11.31947 -66.39298 7421 ft 167 kts 153°
2026-04-12 16:01 11.30882 -66.38800 7421 ft 167 kts 152°
2026-04-12 16:02 11.29817 -66.38306 7421 ft 167 kts 153°
2026-04-12 16:02 11.28763 -66.37816 7421 ft 167 kts 153°
2026-04-12 16:02 11.27683 -66.37317 7422 ft 167 kts 152°
2026-04-12 16:02 11.26616 -66.36823 7422 ft 167 kts 153°
2026-04-12 16:03 11.25551 -66.36325 7422 ft 167 kts 153°
2026-04-12 16:03 11.24487 -66.35825 7421 ft 168 kts 152°
2026-04-12 16:03 11.23421 -66.35331 7421 ft 168 kts 153°
2026-04-12 16:03 11.22354 -66.34831 7422 ft 168 kts 153°
2026-04-12 16:04 11.21290 -66.34328 7423 ft 168 kts 152°
2026-04-12 16:04 11.20222 -66.33823 7423 ft 168 kts 153°
2026-04-12 16:04 11.19157 -66.33316 7424 ft 168 kts 152°
2026-04-12 16:04 11.18087 -66.32813 7424 ft 168 kts 153°
2026-04-12 16:05 11.17029 -66.32311 7423 ft 168 kts 153°
2026-04-12 16:05 11.15960 -66.31808 7422 ft 168 kts 153°
2026-04-12 16:05 11.14901 -66.31304 7421 ft 168 kts 152°
2026-04-12 16:05 11.13835 -66.30798 7420 ft 168 kts 153°
2026-04-12 16:06 11.12760 -66.30290 7421 ft 168 kts 153°
2026-04-12 16:06 11.11696 -66.29784 7422 ft 168 kts 153°
2026-04-12 16:06 11.10636 -66.29285 7423 ft 168 kts 153°
2026-04-12 16:06 11.09569 -66.28777 7423 ft 168 kts 153°
2026-04-12 16:07 11.08500 -66.28270 7424 ft 168 kts 153°
2026-04-12 16:07 11.07435 -66.27762 7423 ft 169 kts 153°
2026-04-12 16:07 11.06364 -66.27256 7424 ft 169 kts 153°
2026-04-12 16:07 11.05300 -66.26747 7424 ft 168 kts 152°
2026-04-12 16:08 11.04237 -66.26245 7426 ft 168 kts 153°
2026-04-12 16:08 11.03161 -66.25736 7427 ft 168 kts 153°
2026-04-12 16:08 11.02103 -66.25235 7428 ft 168 kts 153°
2026-04-12 16:08 11.01035 -66.24725 7428 ft 168 kts 152°
2026-04-12 16:09 10.99977 -66.24229 7428 ft 168 kts 153°
2026-04-12 16:09 10.98918 -66.23727 7417 ft 168 kts 153°
2026-04-12 16:09 10.97844 -66.23219 7422 ft 167 kts 153°
2026-04-12 16:09 10.96792 -66.22722 7420 ft 167 kts 152°
2026-04-12 16:10 10.95727 -66.22216 7423 ft 167 kts 153°
2026-04-12 16:10 10.94677 -66.21719 7428 ft 168 kts 152°
2026-04-12 16:10 10.93601 -66.21211 7429 ft 168 kts 153°
2026-04-12 16:10 10.92545 -66.20704 7426 ft 168 kts 152°
2026-04-12 16:11 10.91481 -66.20199 7431 ft 169 kts 153°
2026-04-12 16:11 10.90406 -66.19687 7432 ft 169 kts 152°
2026-04-12 16:11 10.89329 -66.19173 7430 ft 169 kts 152°
2026-04-12 16:11 10.88262 -66.18665 7425 ft 169 kts 153°
2026-04-12 16:12 10.87204 -66.18161 7412 ft 168 kts 153°
2026-04-12 16:12 10.86138 -66.17649 7424 ft 167 kts 152°
2026-04-12 16:12 10.85079 -66.17142 7427 ft 168 kts 152°
2026-04-12 16:12 10.84018 -66.16637 7423 ft 168 kts 152°
2026-04-12 16:13 10.82960 -66.16134 7423 ft 168 kts 153°
2026-04-12 16:13 10.81885 -66.15623 7422 ft 168 kts 153°
2026-04-12 16:13 10.80821 -66.15116 7422 ft 168 kts 152°
2026-04-12 16:13 10.79763 -66.14616 7424 ft 168 kts 153°
2026-04-12 16:14 10.78700 -66.14111 7431 ft 168 kts 153°
2026-04-12 16:14 10.77620 -66.13597 7425 ft 169 kts 152°
2026-04-12 16:14 10.76584 -66.13104 7369 ft 164 kts 153°
2026-04-12 16:14 10.75533 -66.12628 7202 ft 164 kts 157°
2026-04-12 16:15 10.74444 -66.12235 7038 ft 166 kts 158°
2026-04-12 16:15 10.73339 -66.11845 6882 ft 168 kts 159°
2026-04-12 16:15 10.72221 -66.11452 6741 ft 170 kts 158°
2026-04-12 16:15 10.71102 -66.11059 6610 ft 171 kts 159°
2026-04-12 16:16 10.69974 -66.10664 6471 ft 171 kts 159°
2026-04-12 16:16 10.68835 -66.10266 6335 ft 171 kts 158°
2026-04-12 16:16 10.67719 -66.09829 6209 ft 171 kts 155°
2026-04-12 16:16 10.66611 -66.09373 6091 ft 171 kts 156°
2026-04-12 16:17 10.65512 -66.08917 5961 ft 171 kts 154°
2026-04-12 16:17 10.64414 -66.08406 5803 ft 170 kts 152°
2026-04-12 16:17 10.63345 -66.07900 5657 ft 170 kts 152°
2026-04-12 16:17 10.62262 -66.07399 5505 ft 169 kts 153°
2026-04-12 16:18 10.61186 -66.06897 5365 ft 168 kts 152°
2026-04-12 16:18 10.60116 -66.06406 5235 ft 168 kts 153°
2026-04-12 16:18 10.59061 -66.05900 5113 ft 166 kts 150°
2026-04-12 16:18 10.58024 -66.05357 4953 ft 168 kts 149°
2026-04-12 16:19 10.56987 -66.04813 4784 ft 169 kts 149°
2026-04-12 16:19 10.55932 -66.04265 4625 ft 169 kts 149°
2026-04-12 16:19 10.54879 -66.03719 4466 ft 169 kts 149°
2026-04-12 16:19 10.53831 -66.03187 4297 ft 169 kts 149°
2026-04-12 16:20 10.52780 -66.02653 4131 ft 168 kts 149°
2026-04-12 16:20 10.51652 -66.02357 3941 ft 173 kts 184°
2026-04-12 16:20 10.50606 -66.02955 3758 ft 179 kts 229°
2026-04-12 16:20 10.49903 -66.04000 3596 ft 177 kts 230°
2026-04-12 16:21 10.48963 -66.04748 3441 ft 170 kts 192°
2026-04-12 16:21 10.47823 -66.04897 3287 ft 163 kts 165°
2026-04-12 16:21 10.46921 -66.04288 3125 ft 153 kts 117°
2026-04-12 16:21 10.46806 -66.03280 2969 ft 149 kts 71°
2026-04-12 16:22 10.47511 -66.02521 2804 ft 153 kts 25°
2026-04-12 16:22 10.48579 -66.02539 2639 ft 162 kts 340°
2026-04-12 16:22 10.49360 -66.03348 2477 ft 166 kts 295°
2026-04-12 16:22 10.49398 -66.04493 2315 ft 166 kts 252°
2026-04-12 16:23 10.48932 -66.05561 2089 ft 168 kts 234°
2026-04-12 16:23 10.48127 -66.06442 1723 ft 173 kts 215°
2026-04-12 16:23 10.47121 -66.07063 1565 ft 159 kts 188°
2026-04-12 16:23 10.46116 -66.06873 1362 ft 144 kts 138°
2026-04-12 16:24 10.45724 -66.06050 1261 ft 127 kts 81°
2026-04-12 16:24 10.46182 -66.05415 1243 ft 119 kts 24°
2026-04-12 16:24 10.47026 -66.05546 1078 ft 134 kts 326°
2026-04-12 16:24 10.47363 -66.06398 900 ft 136 kts 257°
2026-04-12 16:25 10.47002 -66.07251 558 ft 127 kts 243°
2026-04-12 16:25 10.46692 -66.08003 315 ft 105 kts 255°
2026-04-12 16:25 10.46459 -66.08698 68 ft 104 kts 250°
2026-04-12 16:25 10.46239 -66.09283 22 ft 70 kts 254°
2026-04-12 16:26 10.46149 -66.09543 22 ft 24 kts 243°
2026-04-12 16:26 10.46184 -66.09621 22 ft 5 kts 338°
2026-04-12 16:26 10.46201 -66.09628 22 ft 0 kts 338°
2026-04-12 16:27 10.46210 -66.09632 22 ft 3 kts 342°
2026-04-12 16:27 10.46237 -66.09605 22 ft 8 kts 58°
2026-04-12 16:27 10.46257 -66.09543 22 ft 7 kts 70°
2026-04-12 16:28 10.46277 -66.09493 22 ft 9 kts 56°
2026-04-12 16:28 10.46320 -66.09499 22 ft 6 kts 340°
2026-04-12 16:28 10.46351 -66.09512 22 ft 1 kts 311°
2026-04-12 16:28 10.46350 -66.09527 22 ft 4 kts 252°
2026-04-12 16:29 10.46337 -66.09538 22 ft 1 kts 156°
2026-04-12 16:29 10.46334 -66.09537 22 ft 0 kts 158°